Regional Weather Roundup
Issued by NWS Newport/Morehead, NC

Current Version | Previous Version | Text Only | Print | Product List | Glossary On
Versions: 1 2 3 4 5 6 7 8 9 10 11 12 13 14 15 16 17 18 19 20 21 22 23 24 25 26 27 28 29 30 31 32 33 34 35 36 37 38 39 40 41 42 43 44 45 46 47 48 49 50
299
ASUS42 KMHX 241813
RWRMHX
WEATHER ROUNDUP FOR EASTERN NORTH CAROLINA
NATIONAL WEATHER SERVICE NEWPORT/MOREHEAD CITY NC
100 PM EST FRI NOV 24 2017

NOTE: "FAIR" INDICATES FEW OR NO CLOUDS BELOW 12,000 FEET
WITH NO SIGNIFICANT WEATHER AND/OR OBSTRUCTIONS TO VISIBILITY

NCZ015>017-031-032-045>047-102-103-241900-
NORTH COAST

CITY           SKY/WX    TMP DP  RH WIND       PRES   REMARKS
EDENTON        SUNNY     56  38  51 CALM      30.01F
ELIZABETH CITY SUNNY     55  40  56 E9        30.01F
KITTY HAWK     PTCLDY    53  40  60 NE5       29.99F
MANTEO         PTSUNNY   53  42  66 NE8       30.00F

$$

NCZ045>047-081-094-103-104-241900-
CENTRAL COAST

CITY           SKY/WX    TMP DP  RH WIND       PRES   REMARKS
FRISCO         CLOUDY    60  51  72 NE8G21    29.96F

$$

NCZ095-097-098-100-101-241900-
SOUTHERN COAST

CITY           SKY/WX    TMP DP  RH WIND       PRES   REMARKS
BEAUFORT       CLOUDY    53  46  77 N14       29.95F
CEDAR ISLAND   NOT AVBL
JACKSONVILLE   PTSUNNY   54  40  59 N9        29.96F
PINEY ISLAND     N/A    N/A N/A N/A N13       29.96F
WILMINGTON     CLOUDY    55  35  47 N8        29.96F


$$

NCZ011>013-027>030-043-044-078>080-089-090>093-098-241900-
COASTAL PLAIN

CITY           SKY/WX    TMP DP  RH WIND       PRES   REMARKS
AHOSKIE        SUNNY     52  28  39 N6        30.02F
CLINTON        SUNNY     54  32  42 E5        30.00F
ELIZABETHTOWN  NOT AVBL
GOLDSBORO      SUNNY     55  28  36 NE7       29.98F
GREENVILLE     SUNNY     54  32  43 E5        30.02F
HAVELOCK       SUNNY     51  44  77 N10       29.97F
KENANSVILLE    MOSUNNY   52  28  40 NE5       29.99F
KINSTON        SUNNY     55  34  44 N3        29.99
NEW BERN       MOSUNNY   50  41  71 N8        29.98F
RICHLANDS      CLOUDY    54  37  52 N8        29.97F
ROCKY MOUNT    SUNNY     53  26  35 E6        30.01F
WASHINGTON     SUNNY     56  34  43 NE6       30.00F
WHITEVILLE     SUNNY     56  31  38 NE6       29.97F

$$

AMZ130-135-150-152-154-156-158-170-250-252-270-ANZ085-086-088-633-658-670-241900-
MARINE OBSERVATIONS

STATION/POSITION TIME  TEMP    WIND        PRES    WAVE   SWELL
                       AIR SEA DIR/SP/G            HT/PER HT/PER
                 (UTC) (F)     (DEG/KT/KT) (MB)    (FT/S) (FT/S)
CHESAPEAKE LIGHT NOT AVBL
64 E VA BEACH    1750   53 60   40/ 10/ 14 1016.0    5/ 9   5/ 9
DUCK             1742   52 57   50/ 12/ 13 1015.5
2 E DUCK         1730      59                N/A     4/10   2/11
OREGON INLET     1742   55 55   30/  9/ 13 1015.3
13E OREGON INLT  1748      62                N/A     5/10   5/10
HATTERAS CG      1742   56 56   30/ 10/ 13 1014.3
DIAMOND BUOY     1800   62 72   20/ 19/ 23 1013.6
CAPE LOOKOUT     1800           10/ 17/ 21 1013.8
BEAUFORT LAB     1742   52 58   20/ 11/ 16 1014.2
30 SE NEW RVR IN 1708   56 67   50/ 17/ 23 1013.9
30 SE NEW RVR IN 1730      67                N/A     7/11   3/11
27 SE WRIGHTSVLE 1708   57 72   40/ 19/ 29 1013.8
5 SE WRIGHTSVLE  1708   51 63   20/ 14/ 19 1014.9
225 S CAPE HAT   1750   72 76  310/ 29/ 37 1007.2    9/ 8
41 SE CHARLESTON 1800   62 73   20/ 21/ 27 1011.8

$$




USA.gov is the U.S. government's official web portal to all federal, state and local government web resources and services.